Waarnemingen

Advertentie
Mijn weer
Nantes, Frankrijk (7222): temperatuur & dauwpunt: 17.01.2018 05:00:00 - 23.01.2018 05:00:00 (CET)Nantes, Frankrijk (7222): temperatuur 5cm: 17.01.2018 05:00:00 - 23.01.2018 05:00:00 (CET)Nantes, Frankrijk (7222): temperatuur -20cm & temperatuur -100cm: 17.01.2018 05:00:00 - 23.01.2018 05:00:00 (CET)Nantes, Frankrijk (7222): windsnelheid & windstoten: 17.01.2018 05:00:00 - 23.01.2018 05:00:00 (CET)Nantes, Frankrijk (7222): windrichting: 17.01.2018 05:00:00 - 23.01.2018 05:00:00 (CET)Nantes, Frankrijk (7222): luchtdruk: 17.01.2018 05:00:00 - 23.01.2018 05:00:00 (CET)Nantes, Frankrijk (7222): zicht: 17.01.2018 05:00:00 - 23.01.2018 05:00:00 (CET)Nantes, Frankrijk (7222): Zonneschijnduur: 17.01.2018 05:00:00 - 23.01.2018 05:00:00 (CET)Nantes, Frankrijk (7222): neerslag: 17.01.2018 05:00:00 - 23.01.2018 05:00:00 (CET)
Datum & Tijd tt [°C] td [°C] tt 5cm [°C] tt -20cm [°C] tt -100cm [°C] ff [km/u] ff [kn] fx [km/u] fx [kn] dd ppp [hPa] vv [km] sd [min] rr [mm]
23.01.2018 05:00:00 7,4 7,1 6,0 10,3 10,7 11 6 17 9 Z 1024,6 0,7 0 0,0
23.01.2018 04:00:00 6,4 6,1 4,7 10,4 10,7 6 3 11 6 Z 1025,2 0,2 0 0,0
23.01.2018 03:00:00 5,8 5,5 3,5 10,4 10,7 7 4 10 5 ZZO 1025,5 0,2 0 0,0
23.01.2018 02:00:00 6,0 5,6 4,0 10,5 10,7 6 3 10 6 Z 1025,7 0,2 0 0,0
23.01.2018 01:00:00 7,6 7,2 4,0 10,6 10,7 9 5 15 8 Z 1025,9 0,2 0 0,0
23.01.2018 00:00:00 7,0 6,6 0,8 10,6 10,7 6 4 12 6 Z 1025,7 0,3 0 0,0
22.01.2018 23:00:00 6,7 6,3 1,5 10,7 10,7 6 4 12 6 WZW 1025,7 4,8 0 0,0
22.01.2018 22:00:00 7,0 6,4 3,1 10,7 10,7 6 4 15 8 ZW 1025,7 12 0 0,0
22.01.2018 21:00:00 7,4 6,7 3,7 10,7 10,7 5 3 13 7 W 1025,5 13 0 0,0
22.01.2018 20:00:00 8,4 7,3 5,0 10,8 10,7 5 3 16 9 W 1024,8 16 0 0,0
22.01.2018 19:00:00 9,2 7,8 7,1 10,8 10,7 13 7 19 10 W 1024,3 21 0 0,0
22.01.2018 18:00:00 10,4 8,0 8,4 10,7 10,6 11 6 31 17 W 1023,3 16 9 0,0
22.01.2018 17:00:00 12,9 8,2 13,0 10,7 10,6 18 10 28 15 WNW 1022,3 41 16 0,0
22.01.2018 16:00:00 12,7 8,2 12,9 10,7 10,6 19 11 40 21 WNW 1021,7 59 0 0,0
22.01.2018 15:00:00 13,4 8,5 13,4 10,6 10,6 20 11 45 24 NW 1020,5 60 17 0,0
22.01.2018 14:00:00 12,7 8,2 11,6 10,6 10,6 24 13 51 27 NW 1019,6 46 9 0,0
22.01.2018 13:00:00 12,2 8,8 12,3 10,6 10,6 31 17 64 34 WNW 1018,7 36 4 0,0
22.01.2018 12:00:00 12,4 9,2 11,8 10,6 10,6 37 20 65 35 W 1017,4 19 23 0,0
22.01.2018 11:00:00 12,9 11,0 12,1 10,5 10,6 34 18 68 37 W 1016,1 11 0 0,0
22.01.2018 10:00:00 12,8 11,4 11,9 10,6 10,6 35 19 73 39 W 1016,1 18 0 0,2
22.01.2018 09:00:00 12,3 11,8 11,5 10,6 10,6 32 17 57 31 W 1015,7 2,2 0 0,2
22.01.2018 08:00:00 11,8 11,3 11,4 10,6 10,6 28 15 55 30 WZW 1016,1 1,8 0 0,2
22.01.2018 07:00:00 11,9 11,3 11,4 10,5 10,6 29 15 61 33 WZW 1016,8 15 0 0,0
22.01.2018 06:00:00 12,0 11,5 11,6 10,6 10,6 32 17 64 35 W 1017,4 12 0 0,0
22.01.2018 05:00:00 12,0 11,5 11,6 10,5 10,6 32 17 54 29 W 1017,9 2,9 0 0,2
22.01.2018 04:00:00 12,0 11,5 11,7 10,5 10,6 32 17 52 28 W 1018,3 1,4 0 0,2
22.01.2018 03:00:00 12,0 11,7 11,6 10,5 10,6 28 15 52 28 W 1018,5 1,3 0 0,2
22.01.2018 02:00:00 11,9 11,4 11,6 10,5 10,6 29 16 51 28 W 1018,9 3,4 0 0,0
22.01.2018 01:00:00 11,9 11,4 11,5 10,5 10,6 29 16 48 26 W 1019,4 2,5 0 0,2
22.01.2018 00:00:00 11,8 11,3 11,4 10,5 10,6 26 14 51 28 W 1019,4 1,5 0 0,2
21.01.2018 23:00:00 11,7 11,2 11,4 10,4 10,6 27 15 44 24 W 1019,3 1,5 0 0,2
21.01.2018 22:00:00 11,7 11,2 11,2 10,4 10,6 25 14 43 23 W 1019,4 2,9 0 0,0
21.01.2018 21:00:00 11,7 11,1 11,1 10,4 10,6 25 14 43 23 W 1019,7 3,1 0 0,0
21.01.2018 20:00:00 11,5 10,9 11,0 10,4 10,6 24 13 43 23 W 1019,6 2,9 0 0,0
21.01.2018 19:00:00 11,6 10,7 11,0 10,4 10,6 24 13 50 27 W 1019,6 4,2 0 0,2
21.01.2018 18:00:00 11,7 11,1 11,3 10,3 10,6 23 12 46 25 W 1019,6 4,5 0 0,0
21.01.2018 17:00:00 11,9 11,1 11,6 10,2 10,6 31 17 54 29 W 1019,6 13 0 0,0
21.01.2018 16:00:00 12,0 11,2 11,8 10,2 10,6 23 13 54 29 W 1019,7 6 0 0,0
21.01.2018 15:00:00 12,0 11,4 11,9 10,1 10,6 27 14 49 27 W 1019,6 5 0 0,0
21.01.2018 14:00:00 12,1 11,3 12,0 10,1 10,6 26 14 45 24 W 1020,0 8 0 0,0
21.01.2018 13:00:00 12,3 11,5 12,4 10,1 10,6 28 15 50 27 W 1020,5 3,8 0 0,0
21.01.2018 12:00:00 12,3 11,5 12,1 10,0 10,6 24 13 39 21 W 1020,3 11 0 0,0
21.01.2018 11:00:00 12,1 11,3 11,6 10,0 10,6 22 12 41 22 W 1020,1 58 0 0,0
21.01.2018 10:00:00 12,0 11,4 11,5 10,0 10,6 22 12 40 22 W 1019,4 57 0 0,0
21.01.2018 09:00:00 11,9 11,4 11,6 10,0 10,6 23 12 42 23 W 1019,1 50 0 0,0
21.01.2018 08:00:00 11,9 11,6 11,5 10,0 10,6 21 11 39 21 W 1018,5 9 0 0,0
21.01.2018 07:00:00 11,8 11,3 11,4 9,9 10,6 18 10 37 20 W 1018,0 6 0 0,0
21.01.2018 06:00:00 11,7 11,2 11,4 9,9 10,6 15 8 24 13 W 1017,9 1,8 0 0,4
21.01.2018 05:00:00 11,8 11,2 11,4 9,9 10,6 14 8 30 16 W 1017,5 2,6 0 0,6
21.01.2018 04:00:00 12,0 11,1 11,3 9,8 10,6 17 9 34 18 W 1017,2 18 0 0,0
21.01.2018 03:00:00 11,9 10,8 11,0 9,8 10,6 20 11 36 19 W 1016,9 19 0 0,0
21.01.2018 02:00:00 11,8 10,5 11,0 9,8 10,6 20 11 36 19 W 1016,5 10 0 0,0
21.01.2018 01:00:00 11,8 10,5 11,0 9,8 10,6 18 10 39 21 WNW 1015,8 40 0 0,0
21.01.2018 00:00:00 12,1 10,7 10,9 9,7 10,6 23 13 41 22 WNW 1014,9 20 0 0,0
20.01.2018 23:00:00 12,2 10,8 11,0 9,7 10,6 23 12 49 26 WNW 1014,0 43 0 0,0
20.01.2018 22:00:00 12,4 11,1 11,6 9,6 10,6 30 16 46 25 WNW 1013,2 20 0 0,0
20.01.2018 21:00:00 12,4 11,3 11,7 9,6 10,6 27 15 50 27 W 1012,5 19 0 0,0
20.01.2018 20:00:00 12,5 11,2 11,6 9,6 10,6 31 17 53 29 WNW 1011,7 19 0 0,0
20.01.2018 19:00:00 12,4 11,3 11,6 9,5 10,6 30 16 63 34 W 1010,9 17 0 0,0
20.01.2018 18:00:00 12,2 11,4 11,7 9,5 10,6 35 19 64 34 W 1010,1 6 0 0,0
20.01.2018 17:00:00 12,3 11,7 11,9 9,4 10,6 37 20 67 36 W 1009,9 3,8 0 0,0
20.01.2018 16:00:00 12,4 11,8 12,0 9,3 10,6 37 20 62 34 W 1009,2 5 0 0,0
20.01.2018 15:00:00 12,5 11,7 12,2 9,2 10,6 35 19 61 33 W 1008,5 4,7 0 0,0
20.01.2018 14:00:00 12,9 12,0 12,5 9,2 10,6 35 19 66 35 W 1008,2 13 0 0,0
20.01.2018 13:00:00 12,8 11,9 12,3 9,1 10,6 39 21 76 41 W 1008,1 8 0 0,2
20.01.2018 12:00:00 12,6 11,8 12,1 9,0 10,6 41 22 72 39 W 1007,9 4,3 0 0,0
20.01.2018 11:00:00 12,7 11,9 11,9 9,0 10,6 39 21 72 39 W 1007,6 13 0 0,4
20.01.2018 10:00:00 12,3 11,7 11,4 8,9 10,6 42 23 71 39 W 1007,0 2,0 0 0,4
20.01.2018 09:00:00 11,9 11,3 10,9 8,9 10,6 37 20 66 36 W 1006,7 5 0 1,0
20.01.2018 08:00:00 11,4 10,8 9,5 8,9 10,6 38 20 62 34 W 1007,0 3,9 0 1,8
20.01.2018 07:00:00 9,8 9,3 8,4 8,9 10,6 29 16 51 28 ZW 1007,7 3,2 0 3,8
20.01.2018 06:00:00 8,7 8,1 8,4 8,9 10,6 25 14 36 20 ZZW 1010,0 4,0 0 3,9
20.01.2018 05:00:00 8,8 8,2 8,0 8,9 10,6 21 11 44 24 ZW 1013,1 7 0 2,8
20.01.2018 04:00:00 8,5 7,9 7,7 8,9 10,6 14 7 28 15 ZW 1014,6 7 0 1,0
20.01.2018 03:00:00 8,2 7,4 7,1 8,9 10,6 17 9 25 14 ZW 1016,3 9 0 0,4
20.01.2018 02:00:00 7,7 6,8 6,4 9,0 10,6 14 8 22 12 ZW 1017,4 12 0 0,2
20.01.2018 01:00:00 7,2 5,7 5,6 9,0 10,6 14 8 21 12 ZZW 1018,5 18 0 0,0
20.01.2018 00:00:00 6,7 5,0 4,2 9,0 10,6 11 6 16 9 ZZW 1019,2 20 0 0,0
19.01.2018 23:00:00 5,6 4,1 2,8 9,1 10,6 10 6 18 10 ZW 1019,3 37 0 0,0
19.01.2018 22:00:00 5,0 3,3 1,9 9,1 10,6 11 6 21 11 WZW 1019,7 35 0 0,0
19.01.2018 21:00:00 4,3 2,3 1,5 9,1 10,6 10 5 16 9 WZW 1019,4 45 0 0,0
19.01.2018 20:00:00 5,4 3,1 2,3 9,1 10,6 11 6 17 9 W 1019,1 42 0 0,0
19.01.2018 19:00:00 6,1 3,1 3,5 9,1 10,6 10 6 24 13 W 1018,8 33 0 0,0
19.01.2018 18:00:00 8,0 4,2 6,1 9,1 10,6 15 8 32 18 W 1018,7 52 5 0,0
19.01.2018 17:00:00 9,1 4,3 8,7 9,0 10,6 19 10 38 20 W 1018,2 47 21 0,0
19.01.2018 16:00:00 10,1 3,6 10,5 9,0 10,6 22 12 34 19 W 1017,7 31 35 0,0
19.01.2018 15:00:00 9,9 3,2 11,4 9,0 10,6 23 13 37 20 WNW 1017,4 41 49 0,0
19.01.2018 14:00:00 10,0 4,4 12,6 8,9 10,6 22 12 37 20 WNW 1017,9 52 55 0,0
19.01.2018 13:00:00 9,1 5,3 9,8 8,9 10,6 19 11 31 17 NW 1018,3 56 7 0,0
19.01.2018 12:00:00 9,2 5,0 10,0 9,0 10,6 16 9 29 16 NW 1018,2 9 60 0,0
19.01.2018 11:00:00 7,9 7,0 5,9 9,0 10,6 9 5 16 9 WZW 1017,4 10 14 0,0
19.01.2018 10:00:00 6,8 6,1 5,4 9,0 10,6 11 6 16 9 WZW 1017,3 10 0 0,0
19.01.2018 09:00:00 6,1 5,5 3,9 9,1 10,6 10 5 19 11 ZW 1016,7 34 0 0,4
19.01.2018 08:00:00 5,4 4,8 0,6 9,2 10,6 13 7 16 9 ZZW 1016,7 10 0 0,0
19.01.2018 07:00:00 4,8 4,1 -1,6 9,3 10,6 11 6 18 10 ZZW 1016,6 10 0 0,0
19.01.2018 06:00:00 2,6 1,6 -1,1 9,4 10,6 11 6 14 7 ZZW 1016,7 10 0 0,0
19.01.2018 05:00:00 4,7 3,5 -0,8 9,4 10,6 9 5 13 7 ZZW 1016,6 10 0 0,0
19.01.2018 04:00:00 5,1 3,3 -0,4 9,5 10,6 5 3 17 9 W 1016,6 10 0 0,0
19.01.2018 03:00:00 5,9 4,1 2,9 9,5 10,6 11 6 16 9 W 1016,3 10 0 0,0
19.01.2018 02:00:00 6,9 5,2 3,9 9,5 10,6 8 4 14 8 W 1016,5 10 0 0,0
19.01.2018 01:00:00 7,7 6,0 5,1 9,6 10,6 5 3 14 7 - 1016,3 10 0 0,0
19.01.2018 00:00:00 7,2 5,5 4,4 9,6 10,6 8 4 16 9 W 1016,0 10 0 0,0
18.01.2018 23:00:00 7,8 5,9 5,2 9,6 10,6 13 7 23 12 W 1015,8 10 0 0,0
18.01.2018 22:00:00 8,2 6,3 6,2 9,6 10,6 13 7 33 18 W 1015,4 10 0 0,0
18.01.2018 21:00:00 9,1 6,9 6,9 9,6 10,6 21 11 32 18 W 1014,8 10 0 0,0
18.01.2018 20:00:00 9,5 7,1 7,4 9,6 10,6 16 9 31 17 W 1014,6 10 0 0,0
18.01.2018 19:00:00 10,6 8,5 8,5 9,5 10,6 18 10 38 21 W 1013,8 10 0 0,0
18.01.2018 18:00:00 11,1 9,4 9,6 9,5 10,6 24 13 48 26 W 1013,3 10 0 0,0
18.01.2018 17:00:00 11,8 10,5 11,2 9,5 10,6 26 14 55 30 W 1013,0 19 0 0,2
18.01.2018 16:00:00 12,0 11,5 11,8 9,4 10,6 29 16 63 34 W 1012,3 4,1 0 0,0
18.01.2018 15:00:00 11,9 11,4 11,9 9,4 10,6 34 18 54 29 W 1012,5 4,8 0 0,6
18.01.2018 14:00:00 11,8 11,3 11,7 9,4 10,6 32 17 58 32 W 1013,0 1,8 0 0,0
18.01.2018 13:00:00 11,7 11,2 11,4 9,2 10,6 33 18 54 29 W 1013,7 2,1 0 0,8
18.01.2018 12:00:00 11,5 11,0 11,0 9,2 10,6 29 16 53 28 W 1014,2 3,0 0 0,8
18.01.2018 11:00:00 11,1 10,6 10,6 9,2 10,6 31 17 61 33 W 1014,3 3,3 0 1,0
18.01.2018 10:00:00 10,9 10,3 10,3 9,1 10,6 32 17 50 27 WZW 1014,2 1,7 0 0,6
18.01.2018 09:00:00 10,7 10,1 10,1 9,1 10,6 31 17 53 28 WZW 1014,4 3,8 0 0,4
18.01.2018 08:00:00 10,6 10,0 10,0 9,1 10,6 28 15 52 28 WZW 1014,1 5 0 0,6
18.01.2018 07:00:00 10,6 9,7 9,9 9,1 10,6 28 15 65 35 WZW 1014,3 10 0 0,0
18.01.2018 06:00:00 10,4 9,6 9,6 9,1 10,6 31 17 56 31 WZW 1015,0 10 0 0,0
18.01.2018 05:00:00 10,1 9,3 9,4 9,1 10,6 28 15 62 34 WZW 1015,5 4,5 0 0,2
18.01.2018 04:00:00 10,1 8,9 9,2 8,9 10,6 31 17 56 30 WZW 1016,2 4,8 0 0,2
18.01.2018 03:00:00 10,1 8,7 8,7 9,0 10,6 26 14 53 29 WZW 1016,7 15 0 0,0
18.01.2018 02:00:00 9,7 8,0 8,5 9,1 10,6 24 13 54 29 WZW 1017,3 10 0 0,0
18.01.2018 01:00:00 9,4 7,8 8,3 9,0 10,6 26 14 49 26 WZW 1018,4 7 0 0,2
18.01.2018 00:00:00 9,9 6,4 8,5 8,9 10,6 26 14 53 28 WZW 1018,8 10 0 0,0
17.01.2018 23:00:00 9,1 6,4 7,0 9,0 10,6 22 12 40 22 WZW 1019,6 19 0 0,0
17.01.2018 22:00:00 8,5 6,5 6,1 9,0 10,6 16 9 29 16 WZW 1020,0 10 0 0,0
17.01.2018 21:00:00 7,8 5,8 6,0 9,0 10,6 12 7 28 15 WZW 1020,6 19 0 0,0
17.01.2018 20:00:00 7,9 5,4 6,0 9,0 10,6 13 7 30 16 WZW 1020,9 10 0 0,0
17.01.2018 19:00:00 8,1 5,0 5,5 9,0 10,6 18 10 32 17 WZW 1021,2 10 0 0,0
17.01.2018 18:00:00 8,1 4,9 6,2 9,0 10,6 21 11 38 21 W 1021,3 10 0 0,0
17.01.2018 17:00:00 9,3 4,5 8,5 8,9 10,6 24 13 44 24 W 1021,4 10 0 0,0
17.01.2018 16:00:00 10,0 3,9 9,5 8,9 10,6 26 14 53 29 W 1021,5 10 2 0,0
17.01.2018 15:00:00 10,5 4,8 10,7 8,9 10,6 24 13 48 26 W 1021,3 16 45 0,0
17.01.2018 14:00:00 10,4 3,4 9,8 8,9 10,6 28 15 47 26 W 1021,4 10 36 0,0
17.01.2018 13:00:00 9,9 2,3 11,9 8,9 10,6 24 13 49 26 WNW 1021,6 10 57 0,0
17.01.2018 12:00:00 9,6 2,7 11,6 8,9 10,5 29 16 50 27 WNW 1021,6 20 60 0,0
17.01.2018 11:00:00 8,5 2,9 8,4 9,0 10,6 21 11 34 18 W 1020,9 20 36 0,0
17.01.2018 10:00:00 7,0 2,1 4,0 9,0 10,6 21 12 32 17 WNW 1019,9 20 0 0,0
17.01.2018 09:00:00 5,9 1,6 3,4 9,1 10,6 19 10 36 19 WNW 1018,8 41 0 0,0
17.01.2018 08:00:00 6,5 1,8 4,6 9,1 10,6 22 12 45 24 WNW 1017,7 10 0 0,0
17.01.2018 07:00:00 6,6 1,9 4,6 9,2 10,6 24 13 48 26 WNW 1016,5 10 0 0,0
17.01.2018 06:00:00 6,7 2,6 4,7 9,2 10,6 28 15 50 27 WNW 1015,9 10 0 0,0
17.01.2018 05:00:00 6,7 1,8 4,9 9,3 10,6 24 13 55 30 WNW 1014,6 10 0 0,0

tt = temperatuur
td = dauwpunt
tt 5cm = temperatuur 5cm
tt -20cm = temperatuur -20cm
tt -100cm = temperatuur -100cm
ff = windsnelheid
fx = windstoten
dd = windrichting
ppp = luchtdruk
vv = zicht
sd = Zonneschijnduur
rr = neerslag

Weerstations in de omgeving